Hourly Weather Roundup
Issued by NWS Central Illinois

Home | Current Version | Previous Version | Text Only | Print | Product List | Glossary On
Versions: 1 2 3 4 5 6 7 8 9 10 11 12 13 14 15 16 17 18 19 20 21 22 23 24 25 26 27 28 29 30 31 32 33 34 35 36 37 38 39 40 41 42 43 44 45 46 47 48 49 50
000
NZUS43 KILX 302110
HWRILX

AREA WEATHER ROUNDUP
NATIONAL WEATHER SERVICE, LINCOLN IL
300 PM CST FRI JAN 30 2015


CITY           SKY/WX    TMP DP  RH WIND       PRES   REMARKS
BLOOMINGTON    SUNNY     33  19  56 CALM      30.46F
CHAMPAIGN      MOSUNNY   34  16  47 VRB5      30.46F WCI  30
DECATUR        SUNNY     35  17  47 VRB3      30.48S
FLORA          SUNNY     37  20  50 N6        30.49S WCI  32
GALESBURG      SUNNY     32  20  62 W5        30.46F WCI  27
JACKSONVILLE   SUNNY     37  19  47 SW3       30.47F
LACON          SUNNY     31  17  55 CALM      30.48R
LAWRENCEVILLE  SUNNY     39  18  42 N8        30.48S WCI  33
LITCHFIELD     SUNNY     34  20  57 N3        30.48S
$$


CITY           SKY/WX    TMP DP  RH WIND       PRES   REMARKS
LINCOLN        SUNNY     36  21  55 S3        30.49S
MACOMB         SUNNY     32  21  63 CALM      30.49F
MATTOON        SUNNY     34  16  47 CALM      30.46S
MT CARMEL AP   SUNNY     41  21  45 NW5       30.47S
OLNEY-NOBLE AP SUNNY     36  21  55 CALM      30.48F
PARIS          SUNNY     34  17  50 CALM      30.48S
PEORIA         SUNNY     35  17  47 SW6       30.47F WCI  30
PONTIAC        SUNNY     32  21  63 NW3       30.48R
RANTOUL        SUNNY     33  17  52 CALM      30.46F
ROBINSON       SUNNY     36  20  52 N6        30.48F WCI  31
SPRINGFIELD    SUNNY     36  18  48 CALM      30.48F
TAYLORVILLE    SUNNY     32  21  64 CALM      30.48F
$$

...REGIONAL REPORTS...


CITY           SKY/WX    TMP DP  RH WIND       PRES   REMARKS
CHICAGO O`HARE MOSUNNY   28   8  43 VRB3      30.45F
KANKAKEE       SUNNY     32  17  53 SW5       30.47F WCI  27
MOLINE         SUNNY     30  14  51 W5        30.46F WCI  25
MOUNT VERNON   SUNNY     39  19  45 E3        30.49R
PITTSFIELD     SUNNY     37  20  50 SE5       30.48F WCI  33
QUINCY         SUNNY     35  15  44 VRB7      30.47F WCI  29
ROCKFORD       MOSUNNY   28  10  46 W6        30.47F WCI  22
$$


CITY           SKY/WX    TMP DP  RH WIND       PRES   REMARKS
BURLINGTON     SUNNY     32  17  54 VRB5      30.47S WCI  27
CEDAR RAPIDS   SUNNY     30  12  47 SW5       30.44F WCI  25
DES MOINES     PTSUNNY   35  11  36 SW6       30.42F WCI  30
KIRKSVILLE     SUNNY     35  12  38 VRB6      30.45F WCI  30
OTTUMWA        SUNNY     33  14  45 W5        30.44F WCI  29
ST LOUIS       PTSUNNY   39  16  39 CALM      30.49S
$$


CITY           SKY/WX    TMP DP  RH WIND       PRES   REMARKS
TERRE HAUTE    SUNNY     35  14  42 VRB3      30.46F
EVANSVILLE     SUNNY     40  22  48 N6        30.47S
INDIANAPOLIS   MOSUNNY   30  15  53 N9        30.45S WCI  22
LAFAYETTE      MOSUNNY   30  17  58 NW5       30.47F WCI  25
MADISON        MOSUNNY   24   8  50 W5        30.43F WCI  18
MILWAUKEE      MOSUNNY   26   9  48 S5        30.44F WCI  20
$$





USA.gov is the U.S. government's official web portal to all federal, state and local government web resources and services.